Location: Casteau
(50.5142°N, 4.0161°E)
Time: 03:21:51
(UTC+00:00)

Transit 2A - Pass Details

Date: 28 July 2021
Orbit: 594 x 964 km, 66.7° (Epoch: 21 September)

Event Time Altitude Azimuth Distance (km) Brightness Sun altitude
Rises 16:10:30 0° 317° (NW) 3,218 9.7 30.2°
Reaches altitude 10° 16:12:58 10° 309° (NW) 2,348 9.3 29.8°
Maximum altitude 16:17:50 35° 245° (WSW) 1,324 9.1 29.1°
Drops below altitude 10° 16:23:08 10° 181° (S) 2,552 8.9 28.2°
Sets 16:25:55 0° 173° (S) 3,536 9.4 27.8°
